Regional Weather Roundup
Issued by NWS

Home | Current Version | Previous Version | Text Only | Print | Product List | Glossary On
Versions: 1 2 3 4 5 6 7 8 9 10 11 12 13 14 15 16 17 18 19 20 21 22 23 24 25 26 27 28 29 30 31 32 33 34 35 36 37 38 39 40 41 42 43 44 45 46 47 48 49 50
000
ASUS45 KPSR 051510
RWRAZ

ARIZONA HOURLY REGIONAL WEATHER ROUNDUP
NATIONAL WEATHER SERVICE PHOENIX AZ
800 AM MST MON DEC 05 2016

NOTE: FAIR INDICATES FEW OR NO CLOUDS BELOW 12,000 FEET WITH NO
SIGNIFICANT WEATHER AND/OR OBSTRUCTIONS TO VISIBILITY.

AZZ001>003-036-051600-
NORTHWEST ARIZONA

CITY           SKY/WX    TMP DP  RH WIND       PRES   REMARKS
BULLHEAD CITY  CLEAR     45  23  42 N5        29.92F
KINGMAN        PTCLDY    36  13  38 SE6       29.93R WCI  31
$$

AZZ004>008-015-016-018-051600-
NORTH CENTRAL ARIZONA

CITY           SKY/WX    TMP DP  RH WIND       PRES   REMARKS
GRAND CANYON   PTCLDY    22  18  85 CALM      29.96S
PRESCOTT       MOCLDY    32  17  54 SW3       29.96S
FLAGSTAFF      PTCLDY    24  15  68 SW5       29.98R WCI  18
PAYSON         CLEAR     36  16  44 CALM      30.01R
PAGE           CLEAR     33  18  53 N5        29.89S WCI  29
$$

AZZ009>014-017-051600-
NORTHEAST ARIZONA

CITY           SKY/WX    TMP DP  RH WIND       PRES   REMARKS
WINSLOW        PTCLDY    27  18  69 CALM      29.94S
SAINT JOHNS    PTCLDY    22  16  78 CALM      29.94R
WINDOW ROCK    CLEAR     19  13  77 N3        29.94F
SHOW LOW       PTCLDY    37   9  30 S13       29.98R WCI  29
$$

AZZ023-051600-
GREATER PHOENIX AREA

CITY           SKY/WX    TMP DP  RH WIND       PRES   REMARKS
PHOENIX        MOCLDY    45  26  47 SE8       29.91F
BUCKEYE        CLEAR     39  27  60 NW5       29.95R
GLENDALE       MOCLDY    39  32  75 CALM      29.95R
DEER VALLEY    CLEAR     44  22  41 CALM      29.92R
SCOTTSDALE     CLEAR     46  26  45 CALM      29.93F
MESA-FALCON      N/A    N/A N/A N/A NE9       29.89F
MESA-GATEWAY   PTCLDY    39  25  56 E9        29.93F WCI  33
CHANDLER       PTCLDY    39  27  60 E5        29.92F
$$

AZZ027-028-051600-
SOUTHWEST MARICOPA COUNTY AND PINAL COUNTY

CITY           SKY/WX    TMP DP  RH WIND       PRES   REMARKS
CASA GRANDE    NOT AVBL
$$

AZZ503-504-507>509-051600-
SOUTHEAST ARIZONA

CITY           SKY/WX    TMP DP  RH WIND       PRES   REMARKS
TUCSON         PTCLDY    43  22  43 SE6       29.99R
RYAN FIELD     CLEAR     37  27  65 E7        29.98R WCI  32
NOGALES        CLEAR     35  25  66 NE3       30.01R
DOUGLAS        PTCLDY    27  24  89 CALM      30.02R
SAFFORD        MOCLDY    35  26  69 SE5       29.98R WCI  31
$$

AZZ020-021-025-026-031-051600-
SOUTHWEST ARIZONA

CITY           SKY/WX    TMP DP  RH WIND       PRES   REMARKS
YUMA           MOCLDY    46  22  38 NE3       29.90R
$$

CAZ031-033-041-043-047-048-061-051600-
SOUTHERN CALIFORNIA

CITY           SKY/WX    TMP DP  RH WIND       PRES   REMARKS
DOWNTOWN L.A.  CLEAR     47  39  74 CALM      29.96R
L.A. AIRPORT   FOG       53  53 100 E3        29.97R VSB 1/16
SAN DIEGO      MOCLDY    51  49  92 CALM      29.98R
BURBANK        CLEAR     45  28  51 CALM      29.95S
ONTARIO        MOCLDY    44  33  65 W3        29.96R
RIVERSIDE      CLEAR     43  35  73 CALM      29.96R
PALM SPRINGS   PTCLDY    50  32  50 S3        29.90R
EL CENTRO NAS  PTCLDY    40  19  43 S3        29.90R
IMPERIAL       PTCLDY    42  27  55 CALM      29.88R
BLYTHE         CLEAR     39  20  46 SW6       29.90R WCI  35
NEEDLES        CLEAR     43  16  33 SW8       29.92R
$$

NVZ020-UTZ003-051600-
SOUTHERN NEVADA-UTAH

CITY           SKY/WX    TMP DP  RH WIND       PRES   REMARKS
LAS VEGAS      PTCLDY    43  16  33 CALM      29.92R
SALT LAKE CITY CLOUDY    31  15  52 N10       30.01R WCI  22
$$

NMZ009-TXZ055-051600-
NEW MEXICO-WEST TEXAS

CITY           SKY/WX    TMP DP  RH WIND       PRES   REMARKS
ALBUQUERQUE    CLOUDY    31  15  52 CALM      29.92F
EL PASO        SUNNY     36  31  82 CALM      29.93F
$$


........................KEY........................
SKY/WX - SKY CONDITION/WEATHER
TMP    - TEMPERATURE IN FAHRENHEIT
DP     - DEW POINT IN FAHRENHEIT
RH     - RELATIVE HUMIDITY IN PERCENT
WIND   - DIRECTION AND SPEED IN MILES PER HOUR (MPH)
VRB    - VARIABLE WIND DIRECTION
PRES   - MEAN SEA LEVEL PRESSURE IN INCHES OF MERCURY
         F - FALLING PRESSURE   R - RISING PRESSURE
         S - STEADY PRESSURE
VSB    - VISIBILITY IN MILES
HX     - HEAT INDEX IN FAHRENHEIT
WCI    - WIND CHILL INDEX IN FAHRENHEIT
TC     - TEMPERATURE IN CELSIUS WHICH IS ALSO KNOWN AS
         TEMPERATURE IN CENTIGRADE
AFB    - AIR FORCE BASE
         LUKE AFB IS LUKE AIR FORCE BASE
         DAVIS-MONTHAN IS DAVIS-MONTHAN AIR FORCE BASE
NAS    - NAVAL AIR STATION
         EL CENTRO NAS IS EL CENTRO NAVAL AIR STATION
N/A    - NOT AVAILABLE




USA.gov is the U.S. government's official web portal to all federal, state and local government web resources and services.